Gainesville, GA

5:07 PM EST on February 25, 2018 (GMT -0500)
Gilmer Memorial

Weather History for KGVL - October, 2014

Change the Weather History Date:

Friday, October 3, 2014

  Actual Average Record
Temperature  
Mean Temperature 70 °F 66 °F  
Max Temperature 76 °F 75 °F 92 °F (1954)
Min Temperature 64 °F 56 °F 33 °F (1974)
Degree Days  
Heating Degree Days 0 2  
Month to date heating degree days 0 6  
Since 1 July heating degree days 0 19  
Cooling Degree Days 5 3  
Month to date cooling degree days 20 9  
Year to date cooling degree days 1631 1550  
Growing Degree Days 20 (Base 50)    
Moisture  
Dew Point 66 °F    
Average Humidity 84    
Maximum Humidity 100    
Minimum Humidity 68    
Precipitation  
Precipitation 0.53 in 0.17 in 2.55 in (2015)
Month to date precipitation 0.53 0.53  
Year to date precipitation 33.65 41.46  
Snow  
Snow 0.00 in - - ()
Month to date snowfall 0.0  
Since 1 July snowfall 0.0  
Since 1 September snowfall 0.0  
Snow Depth -    
Sea Level Pressure  
Sea Level Pressure 29.96 in    
Wind  
Wind Speed 7 mph (SSW)    
Max Wind Speed 16 mph    
Max Gust Speed 22 mph    
Visibility 7 miles    
Events Fog , Rain , Thunderstorm    
T = Trace of Precipitation, MM = Missing Value Source: NWS Daily Summary

Daily Weather History Graph

Daily Weather History Graph

Search for Another Location

Airport or City:

Trip Planner

Search our weather history database for the weather conditions in past years. The results will help you decide how hot, cold, wet, or windy it might be!

Date:

Astronomy

Oct. 03, 2014 Rise Set
Actual Time 7:31 AM EDT 7:16 PM EDT
Civil Twilight 7:06 AM EDT 7:41 PM EDT
Nautical Twilight 6:37 AM EDT 8:10 PM EDT
Astronomical Twilight 6:08 AM EDT 8:39 PM EDT
Moon 3:57 PM EDT (10/3) 2:03 AM EDT (10/3)
Length of Visible Light 12h 35m
Length of Day
11h 45m
Waxing Gibbous, 71% of the Moon is Illuminated
Oct 3
Waxing Gibbous
Oct 8
Full
Oct 15
Last Quarter
Oct 23
New
Oct 30
First Quarter

Hourly Weather History & Observations

Time (EDT) Temp. Dew Point Humidity Pressure Visibility Wind Dir Wind Speed Gust Speed Precip Events Conditions
12:53 AM 69.1 °F 60.1 °F 73% 30.03 in 10.0 mi SE 3.5 mph - N/A   Clear
1:53 AM 68.0 °F 62.1 °F 81% 30.02 in 10.0 mi SE 4.6 mph - N/A   Mostly Cloudy
2:53 AM 68.0 °F 60.1 °F 76% 30.01 in 10.0 mi SSE 5.8 mph - N/A   Overcast
3:53 AM 66.9 °F 61.0 °F 81% 29.98 in 10.0 mi SSE 5.8 mph - N/A   Overcast
4:53 AM 66.9 °F 62.1 °F 84% 29.96 in 10.0 mi SE 6.9 mph - N/A   Overcast
5:41 AM 66.9 °F 64.0 °F 90% 29.99 in 10.0 mi SSE 6.9 mph - N/A   Overcast
5:53 AM 66.9 °F 64.0 °F 90% 29.94 in 10.0 mi SSE 8.1 mph - N/A   Overcast
6:15 AM 66.9 °F 64.0 °F 90% 29.99 in 10.0 mi South 8.1 mph - N/A   Overcast
6:27 AM 68.0 °F 64.9 °F 90% 29.99 in 10.0 mi SSE 8.1 mph - N/A   Overcast
6:53 AM 68.0 °F 64.9 °F 90% 29.96 in 10.0 mi SSE 6.9 mph - N/A   Overcast
7:13 AM 68.0 °F 64.9 °F 90% 30.00 in 9.0 mi SSE 6.9 mph - N/A   Overcast
7:53 AM 66.9 °F 66.0 °F 97% 29.96 in 4.0 mi SSE 6.9 mph - 0.02 in   Overcast
8:22 AM 68.0 °F 66.9 °F 96% 29.99 in 3.0 mi South 8.1 mph - N/A   Overcast
8:45 AM 68.0 °F 66.9 °F 96% 29.99 in 2.5 mi South 6.9 mph - 0.00 in Rain Light Rain
8:53 AM 69.1 °F 66.9 °F 93% 29.95 in 2.5 mi Variable 6.9 mph - 0.01 in Rain Light Rain
8:55 AM 69.1 °F 66.9 °F 93% 29.99 in 1.8 mi South 8.1 mph - 0.02 in Rain Rain
9:03 AM 69.1 °F 68.0 °F 96% 29.99 in 1.5 mi South 6.9 mph - 0.05 in Rain Rain
9:06 AM 69.1 °F 68.0 °F 96% 29.99 in 2.0 mi South 5.8 mph - 0.05 in Rain Light Rain
9:09 AM 69.1 °F 68.0 °F 96% 29.99 in 3.0 mi South 6.9 mph - 0.05 in Rain Light Rain
9:23 AM 69.1 °F 68.0 °F 96% 29.99 in 4.0 mi South 6.9 mph - 0.05 in Rain Light Rain
9:35 AM 69.1 °F 68.0 °F 96% 30.00 in 2.0 mi SSW 5.8 mph - 0.08 in Rain Light Rain
9:45 AM 69.1 °F 68.0 °F 96% 30.00 in 2.5 mi Variable 6.9 mph - 0.10 in Rain Light Rain
9:53 AM 69.1 °F 68.0 °F 96% 29.96 in 2.5 mi SW 5.8 mph - 0.12 in Rain Rain
10:00 AM 69.1 °F 68.0 °F 96% 30.01 in 1.8 mi SW 6.9 mph - 0.04 in Rain Rain
10:02 AM 69.1 °F 68.0 °F 96% 30.01 in 1.0 mi SW 8.1 mph - 0.09 in Rain Heavy Rain
10:09 AM 69.1 °F 68.0 °F 96% 30.00 in 0.5 mi SSW 4.6 mph - 0.19 in Fog , Rain Heavy Rain
10:15 AM 69.1 °F 68.0 °F 96% 30.00 in 1.2 mi SSW 5.8 mph - 0.21 in Rain Rain
10:20 AM 69.1 °F 68.0 °F 96% 30.00 in 2.0 mi SSW 5.8 mph - 0.23 in Rain , Thunderstorm Thunderstorms and Rain
10:31 AM 69.1 °F 68.0 °F 96% 29.99 in 2.5 mi SSW 4.6 mph - 0.26 in Rain , Thunderstorm Thunderstorms and Rain
10:35 AM 69.1 °F 68.0 °F 96% 30.00 in 3.0 mi SSW 5.8 mph - 0.26 in Rain Light Rain
10:44 AM 69.1 °F 68.0 °F 96% 29.99 in 3.0 mi SSW 5.8 mph - 0.28 in Rain Rain
10:53 AM 69.1 °F 68.0 °F 96% 29.95 in 2.5 mi South 6.9 mph - 0.30 in Rain Rain
10:55 AM 69.1 °F 68.0 °F 96% 29.98 in 3.0 mi South 8.1 mph - 0.01 in Rain Rain
11:00 AM 69.1 °F 68.0 °F 96% 29.98 in 2.5 mi South 8.1 mph - 0.03 in Rain Rain
11:13 AM 69.1 °F 68.0 °F 96% 29.97 in 3.0 mi South 9.2 mph - 0.06 in Rain Rain
11:28 AM 69.1 °F 68.0 °F 96% 29.96 in 4.0 mi South 6.9 mph - 0.08 in Rain Light Rain
11:49 AM 69.8 °F 68.0 °F 94% 29.97 in 9.0 mi SSW 9.2 mph - 0.08 in   Overcast
11:53 AM 69.1 °F 68.0 °F 96% 29.93 in 9.0 mi SSW 8.1 mph - 0.08 in   Overcast
12:20 PM 70.0 °F 68.0 °F 93% 29.96 in 10.0 mi SSW 6.9 mph - N/A   Overcast
12:53 PM 70.0 °F 68.0 °F 93% 29.93 in 10.0 mi SW 6.9 mph - 0.00 in   Overcast
1:00 PM 70.0 °F 68.0 °F 93% 29.97 in 10.0 mi SW 8.1 mph - N/A   Overcast
1:27 PM 70.0 °F 68.0 °F 93% 29.96 in 10.0 mi SW 6.9 mph - N/A   Overcast
1:50 PM 71.6 °F 66.2 °F 83% 29.94 in 10.0 mi SW 6.9 mph - N/A   Overcast
1:53 PM 71.1 °F 66.9 °F 87% 29.90 in 10.0 mi SW 8.1 mph - N/A   Overcast
2:07 PM 72.0 °F 66.0 °F 81% 29.94 in 10.0 mi SW 11.5 mph - N/A   Mostly Cloudy
2:15 PM 72.0 °F 66.0 °F 81% 29.93 in 10.0 mi SW 10.4 mph - N/A   Mostly Cloudy
2:53 PM 73.9 °F 64.9 °F 73% 29.86 in 10.0 mi SW 11.5 mph 17.3 mph N/A   Mostly Cloudy
3:06 PM 75.9 °F 66.0 °F 71% 29.90 in 10.0 mi WSW 10.4 mph - N/A   Partly Cloudy
3:53 PM 75.0 °F 64.9 °F 71% 29.86 in 10.0 mi WSW 11.5 mph - N/A   Scattered Clouds
4:53 PM 73.9 °F 63.0 °F 68% 29.86 in 10.0 mi WSW 9.2 mph - N/A   Mostly Cloudy
5:53 PM 73.0 °F 63.0 °F 71% 29.86 in 10.0 mi West 5.8 mph - N/A   Clear
6:53 PM 71.1 °F 63.0 °F 75% 29.86 in 10.0 mi West 6.9 mph - N/A   Clear
7:53 PM 68.0 °F 63.0 °F 84% 29.86 in 10.0 mi WSW 5.8 mph - N/A   Clear
8:53 PM 68.0 °F 63.0 °F 84% 29.87 in 10.0 mi West 6.9 mph - N/A   Clear
9:53 PM 66.9 °F 63.0 °F 87% 29.88 in 10.0 mi West 8.1 mph - N/A   Clear
10:53 PM 64.9 °F 62.1 °F 90% 29.88 in 10.0 mi West 4.6 mph - N/A   Clear
11:53 PM 66.9 °F 61.0 °F 81% 29.88 in 10.0 mi West 9.2 mph 20.7 mph N/A   Scattered Clouds